STARLINK-37263, 68544

Orbit data source: Space-Track

STARLINK-37263, 68544 is a payload satellite owned by SpaceX/Seattle (US) in LEO that was launched on Thu, 02 Apr 2026 UTC via an FALCON 9 launch vehicle from the Air Force Eastern Test Range (AFETR). Payload-class satellites include a variety of spacecraft equipped with specific instruments for various scientific and technological missions. These include communications satellites like Starlink; space stations such as the ISS; scientific satellites like the Hubble; Earth observation satellites from companies like Planet Labs, Umbra, and HawkEye 360; GPS; miniature CubeSats for education and research; and military/defense satellites.

Loading next visibility...
Identifier
68544, 2026-070C
Orbit
LEO
Country
Flag of USUS
Related business
Manufacturer
SpaceX/Seattle
Mission
Operational spacecraft
Bus & Motor
STARLINK V2MO, Unknown motor
Mass
575 kg wet, ~530 kg dry
Launch date (UTC)
2026-04-02 (2 months ago)
Launch vehicle
FALCON 9
Launch site
Air Force Eastern Test Range (AFETR)
Object type
Payload
Rocket body
Debris
Shape & HBR
Unknown shape, 14.5 m
Radar Cross Section
RCS unknown

Expand to show TLE details & history
Last TLE update: 19 hours ago

TLE from 19 hours ago
0 STARLINK-37263
1 68544U 26070C   26145.33862584  .00018007  00000-0  54281-3 0  9998
2 68544  53.1603   6.3053 0000905 115.1851 244.9245 15.34398458  8299
Epoch: 2026-05-25T08:07Z
TLE epoch observation values (Epoch: 2026-05-25T08:07:37.272Z)
Latitude
-0.00007°
Longitude
1.4721°
Altitude
463.872 km
Speed
7.636 km/s
True Right ascension
00h 25m 13s
True Declination
0° 00' 00"
Sunlit
Object was in daylight at epoch
Visualization orbit readout
Latitude
Unknown
Longitude
Unknown
Altitude
Unknown
Speed
Unknown
Apparent Right ascension
Unknown
Apparent Declination
Unknown
Sunlit
N/A
Visualization observer readout
Local Sidereal Time
12:07:08
Azimuth
Unknown
Elevation
Unknown
Doppler factor
Unknown
Orbital elements
Apogee altitude
463.584 km
Perigee altitude
462.346 km
Semi-major axis
6,841.102 km
Eccentricity
0.00009
Inclination
53.1603°
RAAN
6.3053°
Arg. of periapsis
115.1851°
True anomaly
244.91511°
Mean anomaly
244.9245°
Eccentric anomaly
244.9198°
Mean motion
3.83578 °/min
Orbital period
93.85 mins
BSTAR
0.00054281
Loading maneuver chart data...
Computing Atmospheric mass density...
Loading historical data...
Loading historical data...
Loading historical data...
Loading historical data...
Loading historical data...
Loading historical data...
Loading historical data...

Documentation

Showing up to 5 results
|